map of HEL home
HEL - Airport
Location
City:  Helsinki, Uusimaa (Nyland), Finland
Name:Vantaa
ICAO:EFHK
IATA:HEL

Details
Type:Airport (Aerodrome, Airfield)
Latitude:6019'02"N (60.317222)
Longitude:2457'48"E (24.963333)
Elevation:179 ft (55 m)
Variation:9.08E (WMM2015 magnetic declination)
0.16 annual change
Runways:3
Longest:11286 × 197 ft (3440 × 60 m), paved

Time
Time Zone:UTC+2 (DST+3)
Local Time:

Weather
METAR:EFHK 200350Z 20011KT 9999 FEW007 BKN200 15/14 Q1007 NOSIG
TAF:EFHK 200231Z 2003/2103 20007KT 9999 FEW035 BKN050 PROB30
TEMPO 2003/2005 BKN005
BECMG 2006/2008 20018G29KT
BECMG 2014/2016 22014KT
TEMPO 2021/2024 7000 RA

Related Locations
Nearby:
Farthest:NZTB: 11012 mi / 17722 km
Terra Nova Bay [Mario Zucchelli Station], AQ

Find:

   beyond  
but within

Other Information
Maps:
NOTAMs:
Links:
Sources:

  
  • flag of Finland
  

Sectional Chart

Flight Planning
at skyvector.com

Satellite Image

Google Maps Satellite view

 

Copyright © 2004-2018 Karl L. Swartz. All rights reserved.
The Great Circle Mapper name and logo are trademarks of the Great Circle Mapper.
All other trademarks mentioned herein belong to their respective owners.
Please see credits for attibutions and further copyright information.

  Follow gcmap on Facebook Follow gcmap on Twitter Follow gcmap on Google+ GCmap on LinkedIn

hCard Microformat

Geo Microformat